Tracking 23757 objects as of 25-Oct-2021
HD Live streaming from Space Station
objects crossing your sky now

COSMOS 397 DEB

Track COSMOS 397 DEB now!
10-day predictions


NORAD ID: 5763
Int'l Code: 1971-015CF
Perigee: 855.2 km
Apogee: 1,426.6 km
Inclination: 66.9 °
Period: 108.0 minutes
Semi major axis: 7511 km
RCS: 0.0229 m2 (small)
Launch date: February 25, 1971
Source: Commonwealth of Independent States (former USSR) (CIS)
Launch site: TYURATAM MISSILE AND SPACE COMPLEX (TTMTR)

Note: This is SATELLITE DEBRIS
aabbcc
Your satellite tracking list
Your tracking list is empty




NASA's NSSDC Master Catalog

Two Line Element Set (TLE):
1 05763U 71015CF  21297.81257196  .00000814  00000-0  11896-2 0  9995
2 05763  66.9024  84.4754 0380323 286.4348  69.5227 13.33459094426099
Source of the keplerian elements: AFSPC